Location: Howard City Library
(37.4684°N, 96.2639°W)
Time: 19:08:40
(UTC+00:00)

Meteor PRIRODA - Pass Details

Date: 18 February 2020
Orbit: 490 x 512 km, 97.5° (Epoch: 05 April)

Event Time Altitude Azimuth Distance (km) Brightness Sun altitude
Rises 11:06:59 0° 16° (NNE) 2,612 7.5 -25.3°
Reaches altitude 10° 11:09:07 10° 21° (NNE) 1,719 6.6 -24.9°
Maximum altitude 11:12:45 55° 100° (E) 609 4.3 -24.2°
Enters shadow 11:13:42 41° 151° (SSE) 738 4.6 -24.0°
